This is the latest recevied weather packets stored in our database for station/object KO4LFZ. If no packets are shown the sender has not sent any weather packets the latest 10 day(s).
| Time | Temp. | Humidity | Pressure | Rain* | Wind** | Luminosity | Snow |
|---|---|---|---|---|---|---|---|
| 1778157731 | 10° C | 97% | 1017.4 hPa | 0 mm | - | 221 W/m² | - |
| 1778157430 | 10° C | 98% | 1017.4 hPa | 0 mm | - | 174 W/m² | - |
| 1778157127 | 9.44° C | 99% | 1017.3 hPa | 0 mm | - | 110 W/m² | - |
| 1778156822 | 8.89° C | 99% | 1017.3 hPa | 0 mm | - | 112 W/m² | - |
| 1778156518 | 8.89° C | 99% | 1017.3 hPa | 0 mm | - | 175 W/m² | - |
| 1778156214 | 8.33° C | 99% | 1017 hPa | 0 mm | - | 117 W/m² | - |
| 1778155910 | 8.33° C | 99% | 1017.2 hPa | 0 mm | - | 85 W/m² | - |
| 1778155606 | 8.33° C | 99% | 1017.1 hPa | 0 mm | - | 69 W/m² | - |
| 1778155303 | 8.89° C | 99% | 1016.8 hPa | 0 mm | - | 59 W/m² | - |
| 1778154999 | 8.89° C | 99% | 1016.9 hPa | 0 mm | - | 53 W/m² | - |
| 1778154695 | 8.89° C | 99% | 1016.7 hPa | 0 mm | - | 46 W/m² | - |
| 1778154391 | 8.89° C | 99% | 1016.9 hPa | 0 mm | - | 41 W/m² | - |
| 1778154088 | 8.33° C | 99% | 1016.6 hPa | 0 mm | - | 36 W/m² | - |
| 1778153786 | 7.22° C | 99% | 1016.9 hPa | 0 mm | - | 32 W/m² | - |
| 1778153483 | 7.22° C | 99% | 1016.9 hPa | 0 mm | - | 27 W/m² | - |
| 1778153181 | 6.67° C | 99% | 1016.7 hPa | 0 mm | - | 23 W/m² | - |
| 1778152877 | 6.67° C | 99% | 1016.9 hPa | 0 mm | - | 16 W/m² | - |
| 1778152574 | 6.11° C | 99% | 1016.5 hPa | 0 mm | - | 12 W/m² | - |
| 1778152270 | 6.67° C | 99% | 1016.7 hPa | 0 mm | - | 9 W/m² | - |
| 1778151966 | 6.67° C | 99% | 1016.6 hPa | 0 mm | - | 6 W/m² | - |
| 1778151663 | 6.11° C | 99% | 1016.5 hPa | 0 mm | - | 3 W/m² | - |
| 1778151360 | 6.67° C | 99% | 1016.6 hPa | 0 mm | - | 2 W/m² | - |
| 1778151056 | 6.67° C | 99% | 1016.5 hPa | 0 mm | - | 0 W/m² | - |
| 1778150754 | 7.22° C | 99% | 1016.5 hPa | 0 mm | - | 0 W/m² | - |
| 1778150450 | 7.22° C | 99% | 1016.5 hPa | 0 mm | - | 0 W/m² | - |
* Rain latest hour (hover to see other rain measurements)
** Current wind speed in m/s (hover to see current wind gust speed)